Change the Weather History Date:

Monday, October 22, 2012

  Actual Average Record
Temperature  
Mean Temperature 71 °F -  
Max Temperature 78 °F 68 °F 87 °F (1963)
Min Temperature 64 °F 42 °F 22 °F (1976)
Cooling Degree Days 6    
Growing Degree Days 21 (Base 50)    
Moisture  
Dew Point 52 °F    
Average Humidity 51    
Maximum Humidity 69    
Minimum Humidity 40    
Precipitation  
Precipitation 0.08 in - - ()
Sea Level Pressure  
Sea Level Pressure 29.98 in    
Wind  
Wind Speed 9 mph (South)    
Max Wind Speed 21 mph    
Max Gust Speed 26 mph    
Visibility 10 miles    
Events Rain , Thunderstorm    
Averages and records for this station are not official NWS values.
T = Trace of Precipitation, MM = Missing Value Source: NWS Daily Summary

Daily Weather History Graph

Daily Weather History Graph

Search for Another Location

Airport or City:

Trip Planner

Search our weather history database for the weather conditions in past years. The results will help you decide how hot, cold, wet, or windy it might be!

Date:

Astronomy

Oct. 22, 2012 Rise Set
Actual Time 7:12 AM CDT 6:07 PM CDT
Civil Twilight 6:45 AM CDT 6:34 PM CDT
Nautical Twilight 6:14 AM CDT 7:05 PM CDT
Astronomical Twilight 5:43 AM CDT 7:36 PM CDT
Moon 2:11 PM CDT (10/22) 12:04 AM CDT (10/22)
Length of Visible Light 11h 48m
Length of Day
10h 54m
First Quarter, 56% of the Moon is Illuminated
Oct 22
First Quarter
Oct 29
Full
Nov 6
Last Quarter
Nov 13
New
Nov 20
First Quarter

Hourly Weather History & Observations

Time (CDT) Temp. Dew Point Humidity Pressure Visibility Wind Dir Wind Speed Gust Speed Precip Events Conditions
12:15 AM 71.6 °F 53.6 °F 53% 29.99 in 10.0 mi SSE 8.1 mph - N/A   Overcast
12:35 AM 71.6 °F 51.8 °F 50% 29.99 in 10.0 mi South 5.8 mph - N/A   Overcast
12:55 AM 70.3 °F 52.2 °F 52% 30.00 in 10.0 mi South 6.9 mph - N/A   Overcast
1:15 AM 69.8 °F 51.8 °F 53% 30.00 in 10.0 mi SSE 5.8 mph - N/A   Overcast
1:35 AM 69.3 °F 50.9 °F 52% 30.01 in 10.0 mi SSE 4.6 mph - N/A   Scattered Clouds
1:55 AM 68.7 °F 50.7 °F 53% 30.01 in 10.0 mi SSE 4.6 mph - N/A   Scattered Clouds
2:15 AM 68.9 °F 50.2 °F 51% 30.01 in 10.0 mi SSE 4.6 mph - N/A   Overcast
2:35 AM 68.7 °F 49.8 °F 51% 30.01 in 10.0 mi SSE 4.6 mph - N/A   Overcast
2:55 AM 68.4 °F 49.5 °F 51% 30.01 in 10.0 mi SSE 4.6 mph - N/A   Overcast
3:15 AM 68.2 °F 48.7 °F 50% 30.01 in 10.0 mi SE 6.9 mph - N/A   Mostly Cloudy
3:35 AM 67.5 °F 48.7 °F 51% 30.00 in 10.0 mi SSE 5.8 mph - N/A   Clear
3:55 AM 66.9 °F 48.9 °F 52% 30.00 in 10.0 mi SSE 5.8 mph - N/A   Scattered Clouds
4:15 AM 66.2 °F 48.2 °F 52% 29.99 in 10.0 mi SSE 6.9 mph - N/A   Scattered Clouds
4:55 AM 66.4 °F 48.0 °F 52% 29.99 in 10.0 mi SSE 8.1 mph - N/A   Scattered Clouds
5:15 AM 66.2 °F 48.2 °F 52% 29.99 in 10.0 mi South 6.9 mph - N/A   Scattered Clouds
5:35 AM 66.2 °F 47.7 °F 51% 30.00 in 10.0 mi South 8.1 mph - N/A   Mostly Cloudy
5:55 AM 66.2 °F 48.2 °F 52% 30.00 in 10.0 mi SSE 8.1 mph - N/A   Mostly Cloudy
6:15 AM 66.2 °F 47.7 °F 51% 30.01 in 10.0 mi SSE 8.1 mph - N/A   Scattered Clouds
6:35 AM 65.7 °F 47.8 °F 53% 30.00 in 10.0 mi South 9.2 mph - N/A   Clear
7:15 AM 65.7 °F 48.0 °F 53% 30.00 in 10.0 mi South 9.2 mph 16.1 mph N/A   Clear
7:35 AM 64.9 °F 48.4 °F 55% 30.00 in 10.0 mi South 9.2 mph - N/A   Scattered Clouds
8:15 AM 66.2 °F 48.9 °F 54% 30.00 in 10.0 mi South 11.5 mph 19.6 mph N/A   Clear
8:35 AM 66.6 °F 49.3 °F 54% 30.00 in 10.0 mi South 15.0 mph - N/A   Clear
8:55 AM 67.1 °F 49.8 °F 54% 30.00 in 10.0 mi South 13.8 mph - N/A   Clear
9:15 AM 68.2 °F 50.7 °F 54% 30.00 in 10.0 mi South 11.5 mph 20.7 mph N/A   Scattered Clouds
9:35 AM 69.8 °F 51.8 °F 53% 29.99 in 10.0 mi South 11.5 mph 20.7 mph N/A   Scattered Clouds
9:55 AM 71.6 °F 53.6 °F 53% 29.99 in 10.0 mi South 12.7 mph 19.6 mph N/A   Mostly Cloudy
10:15 AM 72.3 °F 53.6 °F 52% 29.99 in 10.0 mi SSW 16.1 mph 21.9 mph N/A Thunderstorm Mostly Cloudy
10:35 AM 71.6 °F 53.6 °F 53% 30.00 in 10.0 mi South 16.1 mph 20.7 mph N/A   Scattered Clouds
10:55 AM 71.1 °F 53.4 °F 54% 29.99 in 10.0 mi South 15.0 mph 20.7 mph N/A   Clear
11:15 AM 71.6 °F 53.8 °F 53% 29.97 in 10.0 mi South 13.8 mph 17.3 mph N/A   Clear
11:35 AM 74.3 °F 55.0 °F 51% 29.98 in 10.0 mi South 10.4 mph - N/A Thunderstorm Clear
11:55 AM 75.4 °F 55.0 °F 49% 29.97 in 10.0 mi South 15.0 mph 26.5 mph N/A Thunderstorm Clear
12:15 PM 75.2 °F 55.4 °F 50% 29.96 in 10.0 mi South 20.7 mph 24.2 mph N/A Thunderstorm Clear
12:35 PM 75.2 °F 55.9 °F 51% 29.98 in 10.0 mi South 16.1 mph 21.9 mph N/A Thunderstorm Clear
12:55 PM 75.2 °F 56.7 °F 52% 29.98 in 10.0 mi South 8.1 mph - N/A Thunderstorm Clear
1:15 PM 76.1 °F 56.7 °F 51% 29.97 in 10.0 mi South 6.9 mph - N/A Thunderstorm Clear
1:35 PM 76.5 °F 55.9 °F 49% 29.99 in 10.0 mi SSW 9.2 mph - N/A Thunderstorm Thunderstorm
1:55 PM 76.6 °F 56.3 °F 49% 29.97 in 10.0 mi South 5.8 mph - N/A Thunderstorm Thunderstorm
2:15 PM 77.9 °F 56.3 °F 47% 29.96 in 10.0 mi South 8.1 mph - N/A Thunderstorm Overcast
2:35 PM 78.1 °F 56.5 °F 47% 29.98 in 10.0 mi South 9.2 mph - N/A Thunderstorm Thunderstorm
2:55 PM 77.0 °F 56.8 °F 50% 29.97 in 10.0 mi South 9.2 mph - N/A Thunderstorm Thunderstorm
3:15 PM 77.2 °F 57.2 °F 50% 29.96 in 10.0 mi South 9.2 mph - N/A Thunderstorm Thunderstorm
3:35 PM 75.2 °F 59.5 °F 58% 29.98 in 5.0 mi South 5.8 mph - 0.04 in Rain , Thunderstorm Light Thunderstorms and Rain
3:55 PM 74.5 °F 59.5 °F 60% 29.98 in 10.0 mi South 11.5 mph - 0.04 in Rain , Thunderstorm Thunderstorms and Rain
4:15 PM 71.2 °F 60.3 °F 68% 29.97 in 7.0 mi South 11.5 mph 24.2 mph 0.04 in Rain , Thunderstorm Light Thunderstorms and Rain
4:35 PM 71.1 °F 60.1 °F 68% 29.98 in 10.0 mi South 5.8 mph - 0.04 in Rain , Thunderstorm Light Thunderstorms and Rain
4:55 PM 71.6 °F 60.8 °F 69% 29.98 in 10.0 mi South 8.1 mph - N/A Rain , Thunderstorm Light Thunderstorms and Rain
5:15 PM 72.5 °F 59.7 °F 64% 29.97 in 10.0 mi South 9.2 mph - N/A Thunderstorm Scattered Clouds
5:35 PM 72.5 °F 58.3 °F 61% 29.96 in 10.0 mi SSE 9.2 mph - N/A   Scattered Clouds
5:55 PM 71.6 °F 58.5 °F 63% 29.96 in 10.0 mi South 5.8 mph - N/A   Clear
6:15 PM 70.7 °F 58.1 °F 64% 29.96 in 10.0 mi South 9.2 mph - N/A   Clear
6:35 PM 72.3 °F 50.7 °F 46% 29.97 in 10.0 mi South 10.4 mph 17.3 mph N/A   Clear
6:55 PM 70.7 °F 49.8 °F 48% 29.97 in 10.0 mi SSW 10.4 mph - N/A   Clear
7:15 PM 70.5 °F 48.4 °F 45% 29.98 in 10.0 mi South 9.2 mph - N/A   Clear
7:35 PM 71.6 °F 46.4 °F 41% 29.97 in 10.0 mi South 10.4 mph - N/A   Clear
7:55 PM 71.2 °F 46.4 °F 41% 29.97 in 10.0 mi South 11.5 mph - N/A   Clear
8:15 PM 70.3 °F 46.6 °F 43% 29.97 in 10.0 mi South 11.5 mph 16.1 mph N/A   Clear
8:35 PM 70.9 °F 45.5 °F 40% 29.97 in 10.0 mi South 11.5 mph - N/A   Clear
8:55 PM 71.1 °F 45.3 °F 40% 29.98 in 10.0 mi South 12.7 mph 19.6 mph N/A   Clear
9:15 PM 70.9 °F 45.5 °F 40% 29.98 in 10.0 mi South 13.8 mph 19.6 mph N/A   Scattered Clouds
9:35 PM 70.9 °F 45.7 °F 40% 29.98 in 10.0 mi South 11.5 mph 18.4 mph N/A   Clear
9:55 PM 71.6 °F 46.4 °F 41% 29.98 in 10.0 mi South 10.4 mph - N/A   Clear
10:15 PM 69.8 °F 47.3 °F 45% 29.98 in 10.0 mi South 10.4 mph 17.3 mph N/A   Clear
10:35 PM 69.8 °F 47.1 °F 44% 29.98 in 10.0 mi South 10.4 mph - N/A   Clear
11:15 PM 69.6 °F 46.9 °F 44% 29.98 in 10.0 mi South 10.4 mph - N/A   Scattered Clouds
11:35 PM 69.8 °F 48.2 °F 46% 29.97 in 10.0 mi South 11.5 mph - N/A   Clear
11:55 PM 69.3 °F 47.1 °F 45% 29.96 in 10.0 mi South 11.5 mph 16.1 mph N/A   Clear